| time (UTC) | temp F | wind direction | speed MPH | gust MPH | rain 1hr in | rain 24hr in | rain mn in | humidity % | barometer mb |
| 20260504020828 | 61 | 192 | 0.0 | 0.0 | 0.00 | 0.01 | 0.01 | 48 | 1017.0 |
| 20260504020325 | 61 | 210 | 0.0 | 2.0 | 0.00 | 0.01 | 0.01 | 47 | 1016.9 |
| 20260504015821 | 61 | 208 | 2.0 | 2.0 | 0.00 | 0.01 | 0.01 | 46 | 1017.1 |
| 20260504015317 | 61 | 194 | 1.0 | 2.0 | 0.00 | 0.01 | 0.01 | 47 | 1016.9 |
| 20260504014814 | 61 | 197 | 1.0 | 2.0 | 0.00 | 0.01 | 0.01 | 46 | 1016.8 |
| 20260504014310 | 61 | 191 | 0.0 | 3.0 | 0.00 | 0.01 | 0.01 | 47 | 1016.5 |
| 20260504013808 | 61 | 188 | 0.0 | 1.0 | 0.00 | 0.01 | 0.01 | 47 | 1016.8 |
| 20260504013305 | 62 | 217 | 0.0 | 2.0 | 0.00 | 0.01 | 0.01 | 47 | 1016.6 |
| 20260504012802 | 62 | 188 | 0.0 | 2.0 | 0.00 | 0.01 | 0.01 | 48 | 1016.5 |
| 20260504012300 | 62 | 190 | 1.0 | 2.0 | 0.00 | 0.01 | 0.01 | 48 | 1016.6 |
| 20260504011756 | 62 | 210 | 0.0 | 3.0 | 0.00 | 0.01 | 0.01 | 48 | 1016.7 |
| 20260504011253 | 62 | 214 | 2.0 | 3.0 | 0.00 | 0.01 | 0.01 | 47 | 1016.7 |
| 20260504010749 | 62 | 188 | 0.0 | 3.0 | 0.00 | 0.01 | 0.01 | 48 | 1016.5 |
| 20260504010244 | 62 | 194 | 1.0 | 3.0 | 0.00 | 0.01 | 0.01 | 48 | 1016.8 |
| 20260504005742 | 62 | 193 | 2.0 | 3.0 | 0.00 | 0.01 | 0.01 | 48 | 1016.7 |
| 20260504005238 | 62 | 188 | 0.0 | 2.0 | 0.00 | 0.01 | 0.01 | 49 | 1016.5 |
| 20260504004736 | 62 | 184 | 0.0 | 1.0 | 0.00 | 0.01 | 0.01 | 49 | 1016.5 |
| 20260504004233 | 62 | 185 | 0.0 | 1.0 | 0.00 | 0.01 | 0.01 | 50 | 1016.5 |
| 20260504003730 | 62 | 193 | 0.0 | 0.0 | 0.00 | 0.01 | 0.01 | 50 | 1016.6 |
| 20260504003227 | 62 | 179 | 0.0 | 1.0 | 0.00 | 0.01 | 0.01 | 50 | 1016.4 |
| 20260504002723 | 63 | 179 | 0.0 | 0.0 | 0.00 | 0.01 | 0.01 | 47 | 1016.4 |
| 20260504002220 | 63 | 182 | 0.0 | 1.0 | 0.00 | 0.01 | 0.01 | 49 | 1016.4 |
| 20260504001718 | 63 | 181 | 0.0 | 0.0 | 0.00 | 0.01 | 0.01 | 48 | 1016.4 |
| 20260504001215 | 64 | 188 | 0.0 | 1.0 | 0.00 | 0.01 | 0.01 | 45 | 1016.3 |
| 20260504000711 | 64 | 182 | 0.0 | 0.0 | 0.00 | 0.01 | 0.01 | 45 | 1016.3 |
| 20260504000208 | 65 | 220 | 1.0 | 2.0 | 0.00 | 0.01 | 0.01 | 44 | 1016.3 |
| 20260503235707 | 65 | 168 | 0.0 | 1.0 | 0.00 | 0.01 | 0.01 | 44 | 1016.1 |
| 20260503235204 | 66 | 185 | 0.0 | 1.0 | 0.00 | 0.01 | 0.01 | 45 | 1016.1 |
| 20260503234701 | 66 | 203 | 1.0 | 2.0 | 0.00 | 0.01 | 0.01 | 42 | 1016.2 |
| 20260503234159 | 66 | 180 | 0.0 | 3.0 | 0.00 | 0.01 | 0.01 | 42 | 1016.3 |
| 20260503233656 | 67 | 189 | 3.0 | 3.0 | 0.00 | 0.01 | 0.01 | 40 | 1016.3 |
| 20260503233151 | 67 | 207 | 1.0 | 2.0 | 0.00 | 0.01 | 0.01 | 40 | 1016.1 |
| 20260503232648 | 68 | 242 | 1.0 | 2.0 | 0.00 | 0.01 | 0.01 | 40 | 1016.3 |
| 20260503232146 | 68 | 211 | 1.0 | 5.0 | 0.00 | 0.01 | 0.01 | 37 | 1016.3 |
| 20260503231644 | 68 | 209 | 3.0 | 6.0 | 0.00 | 0.01 | 0.01 | 38 | 1016.3 |
| 20260503231140 | 69 | 205 | 2.0 | 5.0 | 0.00 | 0.01 | 0.01 | 37 | 1016.3 |
| 20260503230637 | 69 | 186 | 1.0 | 3.0 | 0.00 | 0.01 | 0.01 | 40 | 1016.4 |
| 20260503230134 | 70 | 189 | 1.0 | 6.0 | 0.00 | 0.01 | 0.01 | 36 | 1016.3 |
| 20260503225632 | 70 | 227 | 1.0 | 2.0 | 0.00 | 0.01 | 0.01 | 37 | 1016.5 |
| 20260503225131 | 69 | 263 | 3.0 | 8.0 | 0.00 | 0.01 | 0.01 | 36 | 1016.4 |
| 20260503224629 | 70 | 267 | 3.0 | 5.0 | 0.00 | 0.01 | 0.01 | 37 | 1016.6 |
| 20260503224127 | 69 | 214 | 1.0 | 7.0 | 0.00 | 0.01 | 0.01 | 36 | 1016.4 |
| 20260503223625 | 70 | 192 | 1.0 | 6.0 | 0.00 | 0.01 | 0.01 | 37 | 1016.3 |
| 20260503223120 | 69 | 190 | 1.0 | 6.0 | 0.00 | 0.01 | 0.01 | 38 | 1016.4 |
| 20260503222618 | 70 | 219 | 3.0 | 3.0 | 0.00 | 0.01 | 0.01 | 37 | 1016.4 |
| 20260503222115 | 71 | 304 | 4.0 | 5.0 | 0.00 | 0.01 | 0.01 | 34 | 1016.5 |
| 20260503221614 | 71 | 200 | 2.0 | 3.0 | 0.00 | 0.01 | 0.01 | 36 | 1016.5 |
| 20260503221111 | 70 | 189 | 2.0 | 7.0 | 0.00 | 0.01 | 0.01 | 36 | 1016.6 |
| 20260503220608 | 70 | 152 | 1.0 | 5.0 | 0.00 | 0.01 | 0.01 | 36 | 1016.6 |
| 20260503220104 | 70 | 208 | 2.0 | 6.0 | 0.00 | 0.01 | 0.01 | 36 | 1016.7 |
| 20260503215601 | 69 | 255 | 5.0 | 6.0 | 0.00 | 0.01 | 0.01 | 35 | 1016.6 |
| 20260503215058 | 69 | 254 | 5.0 | 6.0 | 0.00 | 0.01 | 0.01 | 36 | 1016.7 |
| 20260503214556 | 70 | 262 | 6.0 | 7.0 | 0.00 | 0.01 | 0.01 | 35 | 1016.6 |
| 20260503214052 | 70 | 257 | 2.0 | 5.0 | 0.00 | 0.01 | 0.01 | 37 | 1016.6 |
| 20260503213551 | 70 | 201 | 1.0 | 5.0 | 0.00 | 0.01 | 0.01 | 38 | 1016.6 |
| 20260503213047 | 70 | 188 | 0.0 | 3.0 | 0.00 | 0.01 | 0.01 | 37 | 1016.6 |
| 20260503212545 | 70 | 286 | 5.0 | 7.0 | 0.00 | 0.01 | 0.01 | 35 | 1016.8 |
| 20260503212042 | 71 | 191 | 2.0 | 6.0 | 0.00 | 0.01 | 0.01 | 37 | 1017.0 |
| 20260503211539 | 71 | 198 | 0.0 | 3.0 | 0.00 | 0.01 | 0.01 | 35 | 1016.8 |
| 20260503211034 | 69 | 237 | 1.0 | 7.0 | 0.00 | 0.01 | 0.01 | 41 | 1016.9 |
| 20260503210531 | 69 | 246 | 3.0 | 7.0 | 0.00 | 0.01 | 0.01 | 39 | 1016.9 |
| 20260503210027 | 69 | 301 | 3.0 | 9.0 | 0.00 | 0.01 | 0.01 | 39 | 1017.0 |
| 20260503205524 | 70 | 216 | 2.0 | 6.0 | 0.00 | 0.01 | 0.01 | 38 | 1017.0 |
| 20260503205020 | 69 | 205 | 4.0 | 7.0 | 0.00 | 0.01 | 0.01 | 38 | 1017.3 |
| 20260503204518 | 69 | 218 | 2.0 | 9.0 | 0.00 | 0.01 | 0.01 | 39 | 1017.1 |
| 20260503204014 | 68 | 210 | 1.0 | 6.0 | 0.00 | 0.01 | 0.01 | 40 | 1017.2 |
| 20260503203512 | 69 | 265 | 5.0 | 10.0 | 0.00 | 0.01 | 0.01 | 40 | 1017.3 |
| 20260503203009 | 69 | 218 | 2.0 | 5.0 | 0.00 | 0.01 | 0.01 | 40 | 1017.4 |
| 20260503202506 | 70 | 211 | 0.0 | 3.0 | 0.00 | 0.01 | 0.01 | 42 | 1017.6 |
| 20260503202004 | 68 | 217 | 2.0 | 5.0 | 0.00 | 0.01 | 0.01 | 43 | 1017.5 |
| 20260503201502 | 70 | 358 | 4.0 | 5.0 | 0.00 | 0.01 | 0.01 | 41 | 1017.6 |
| 20260503200959 | 70 | 215 | 1.0 | 3.0 | 0.00 | 0.01 | 0.01 | 43 | 1017.9 |
| 20260503200455 | 69 | 199 | 1.0 | 5.0 | 0.00 | 0.01 | 0.01 | 44 | 1017.9 |
| 20260503195952 | 67 | 302 | 3.0 | 7.0 | 0.00 | 0.01 | 0.01 | 44 | 1018.0 |
| 20260503195449 | 68 | 224 | 3.0 | 3.0 | 0.00 | 0.01 | 0.01 | 42 | 1018.2 |
| 20260503194945 | 67 | 210 | 2.0 | 5.0 | 0.00 | 0.01 | 0.01 | 42 | 1018.2 |
| 20260503194443 | 67 | 197 | 1.0 | 5.0 | 0.00 | 0.01 | 0.01 | 42 | 1018.2 |
| 20260503193938 | 68 | 259 | 4.0 | 7.0 | 0.00 | 0.01 | 0.01 | 42 | 1018.4 |
| 20260503193434 | 67 | 200 | 1.0 | 5.0 | 0.00 | 0.01 | 0.01 | 42 | 1018.4 |
| 20260503192929 | 68 | 217 | 4.0 | 9.0 | 0.00 | 0.01 | 0.01 | 42 | 1018.7 |
| 20260503192426 | 68 | 226 | 1.0 | 1.0 | 0.00 | 0.01 | 0.01 | 40 | 1018.6 |
| 20260503191922 | 67 | 228 | 3.0 | 6.0 | 0.00 | 0.01 | 0.01 | 41 | 1018.7 |
| 20260503191420 | 67 | 224 | 4.0 | 5.0 | 0.00 | 0.01 | 0.01 | 44 | 1018.8 |
| 20260503190916 | 67 | 205 | 3.0 | 5.0 | 0.00 | 0.01 | 0.01 | 44 | 1018.9 |
| 20260503190413 | 67 | 192 | 2.0 | 3.0 | 0.00 | 0.01 | 0.01 | 41 | 1018.9 |
| 20260503185910 | 66 | 201 | 3.0 | 10.0 | 0.00 | 0.01 | 0.01 | 43 | 1019.0 |
| 20260503185407 | 66 | 258 | 4.0 | 6.0 | 0.00 | 0.01 | 0.01 | 45 | 1018.9 |
| 20260503184905 | 66 | 279 | 2.0 | 6.0 | 0.00 | 0.01 | 0.01 | 45 | 1019.1 |
| 20260503184403 | 66 | 160 | 0.0 | 6.0 | 0.00 | 0.01 | 0.01 | 47 | 1019.1 |
| 20260503183859 | 66 | 263 | 4.0 | 8.0 | 0.00 | 0.01 | 0.01 | 43 | 1019.4 |
| 20260503183356 | 65 | 221 | 1.0 | 2.0 | 0.00 | 0.01 | 0.01 | 44 | 1019.0 |
| 20260503182853 | 66 | 220 | 2.0 | 3.0 | 0.00 | 0.01 | 0.01 | 43 | 1019.4 |
| 20260503182352 | 66 | 278 | 5.0 | 9.0 | 0.00 | 0.01 | 0.01 | 37 | 1019.2 |
| 20260503181848 | 66 | 198 | 1.0 | 3.0 | 0.00 | 0.01 | 0.01 | 44 | 1019.3 |
| 20260503181345 | 65 | 249 | 4.0 | 6.0 | 0.00 | 0.01 | 0.01 | 44 | 1019.4 |
| 20260503180842 | 64 | 238 | 1.0 | 6.0 | 0.00 | 0.01 | 0.01 | 42 | 1019.3 |
| 20260503180340 | 65 | 260 | 4.0 | 6.0 | 0.00 | 0.01 | 0.01 | 38 | 1019.4 |
| 20260503175836 | 64 | 316 | 3.0 | 5.0 | 0.00 | 0.01 | 0.01 | 39 | 1019.2 |
| 20260503175334 | 64 | 288 | 5.0 | 8.0 | 0.00 | 0.01 | 0.01 | 38 | 1019.3 |
| 20260503174829 | 64 | 227 | 3.0 | 7.0 | 0.00 | 0.01 | 0.01 | 40 | 1019.4 |
| 20260503174327 | 64 | 217 | 3.0 | 5.0 | 0.00 | 0.01 | 0.01 | 43 | 1019.3 |
| 20260503173822 | 65 | 240 | 4.0 | 7.0 | 0.00 | 0.01 | 0.01 | 44 | 1019.5 |
| 20260503173319 | 65 | 190 | 0.0 | 3.0 | 0.00 | 0.01 | 0.01 | 50 | 1019.5 |
| 20260503172816 | 64 | 216 | 3.0 | 7.0 | 0.00 | 0.01 | 0.01 | 48 | 1019.7 |
| 20260503172314 | 64 | 252 | 3.0 | 6.0 | 0.00 | 0.01 | 0.01 | 47 | 1019.5 |
| 20260503171809 | 63 | 185 | 0.0 | 6.0 | 0.00 | 0.01 | 0.01 | 48 | 1019.5 |
| 20260503171306 | 63 | 201 | 2.0 | 6.0 | 0.00 | 0.01 | 0.01 | 46 | 1019.7 |
| 20260503170803 | 64 | 296 | 2.0 | 5.0 | 0.00 | 0.01 | 0.01 | 49 | 1020.0 |
| 20260503170300 | 64 | 225 | 3.0 | 5.0 | 0.00 | 0.01 | 0.01 | 47 | 1020.0 |
| 20260503150652 | 61 | 227 | 2.0 | 3.0 | 0.00 | 0.01 | 0.01 | 59 | 1020.9 |
| 20260503150148 | 59 | 158 | 0.0 | 0.0 | 0.00 | 0.01 | 0.01 | 61 | 1020.8 |
| 20260503140113 | 57 | 120 | 0.0 | 2.0 | 0.00 | 0.01 | 0.01 | 70 | 1020.7 |
| 20260503131042 | 54 | 150 | 1.0 | 1.0 | 0.00 | 0.01 | 0.01 | 82 | 1020.3 |
| 20260503130539 | 53 | 135 | 0.0 | 2.0 | 0.00 | 0.01 | 0.01 | 84 | 1020.4 |
| 20260503110430 | 43 | 165 | 0.0 | 0.0 | 0.00 | 0.01 | 0.01 | 99 | 1019.3 |
| 20260503090321 | 43 | 176 | 0.0 | 0.0 | 0.00 | 0.01 | 0.01 | 99 | 1018.0 |
| 20260503081249 | 44 | 175 | 0.0 | 0.0 | 0.00 | 0.01 | 0.01 | 99 | 1017.2 |
| 20260503080745 | 44 | 175 | 0.0 | 0.0 | 0.00 | 0.01 | 0.01 | 99 | 1017.4 |
| 20260503080242 | 44 | 175 | 0.0 | 0.0 | 0.00 | 0.01 | 0.01 | 99 | 1017.0 |
| 20260503072719 | 45 | 192 | 0.0 | 0.0 | 0.00 | 0.01 | 0.01 | 99 | 1017.2 |
| 20260503072215 | 45 | 192 | 0.0 | 0.0 | 0.00 | 0.01 | 0.01 | 99 | 1017.0 |
| 20260503071712 | 45 | 192 | 0.0 | 0.0 | 0.00 | 0.01 | 0.01 | 99 | 1017.2 |
| 20260503071209 | 45 | 192 | 0.0 | 0.0 | 0.00 | 0.01 | 0.01 | 99 | 1017.1 |
| 20260503070705 | 45 | 192 | 0.0 | 0.0 | 0.00 | 0.01 | 0.01 | 99 | 1016.8 |
| 20260503070204 | 46 | 192 | 0.0 | 0.0 | 0.00 | 0.01 | 0.01 | 99 | 1016.8 |
| 20260503060128 | 46 | 192 | 0.0 | 0.0 | 0.00 | 0.01 | 0.01 | 99 | 1016.8 |
| 20260503055119 | 46 | 192 | 0.0 | 0.0 | 0.07 | 0.01 | 0.01 | 99 | 1016.7 |
| 20260503054615 | 46 | 192 | 0.0 | 0.0 | 0.00 | 0.00 | 0.00 | 99 | 1016.8 |
| 20260503054112 | 46 | 192 | 0.0 | 0.0 | 0.00 | 0.00 | 0.00 | 99 | 1016.8 |
| 20260503053610 | 47 | 192 | 0.0 | 0.0 | 0.00 | 0.00 | 0.00 | 99 | 1016.6 |
| 20260503053108 | 47 | 192 | 0.0 | 0.0 | 0.00 | 0.00 | 0.00 | 99 | 1016.6 |
| 20260503052604 | 47 | 192 | 0.0 | 0.0 | 0.00 | 0.00 | 0.00 | 99 | 1016.5 |
| 20260503052101 | 47 | 192 | 0.0 | 0.0 | 0.00 | 0.00 | 0.00 | 99 | 1016.7 |
| 20260503051556 | 47 | 192 | 0.0 | 0.0 | 0.00 | 0.00 | 0.00 | 99 | 1016.6 |
| 20260503051054 | 48 | 192 | 0.0 | 0.0 | 0.00 | 0.00 | 0.00 | 99 | 1016.7 |
| 20260503050550 | 48 | 192 | 0.0 | 0.0 | 0.00 | 0.00 | 0.00 | 99 | 1016.7 |
| 20260503050047 | 48 | 192 | 0.0 | 0.0 | 0.00 | 0.00 | 0.00 | 99 | 1016.6 |
| 20260503045544 | 48 | 192 | 0.0 | 0.0 | 0.00 | 0.00 | 0.00 | 99 | 1016.7 |
| 20260503045042 | 48 | 192 | 0.0 | 0.0 | 0.00 | 0.00 | 0.00 | 99 | 1016.9 |
| 20260503044538 | 48 | 192 | 0.0 | 0.0 | 0.00 | 0.00 | 0.00 | 99 | 1016.7 |
| 20260503044036 | 48 | 192 | 0.0 | 0.0 | 0.00 | 0.00 | 0.00 | 99 | 1016.6 |
| 20260503043532 | 48 | 192 | 0.0 | 0.0 | 0.00 | 0.00 | 0.00 | 99 | 1016.4 |
| 20260503043028 | 48 | 192 | 0.0 | 0.0 | 0.00 | 0.00 | 0.00 | 99 | 1016.7 |
| 20260503042526 | 48 | 192 | 0.0 | 0.0 | 0.00 | 0.00 | 0.00 | 99 | 1016.7 |
| 20260503042021 | 49 | 192 | 0.0 | 0.0 | 0.00 | 0.00 | 0.00 | 99 | 1016.6 |
| 20260503041519 | 49 | 192 | 0.0 | 0.0 | 0.00 | 0.00 | 0.00 | 99 | 1016.6 |
| 20260503041017 | 48 | 192 | 0.0 | 0.0 | 0.00 | 0.00 | 0.00 | 99 | 1016.5 |
| 20260503040514 | 49 | 192 | 0.0 | 0.0 | 0.00 | 0.00 | 0.00 | 99 | 1016.6 |
| 20260503040011 | 49 | 192 | 0.0 | 0.0 | 0.00 | 0.11 | 0.11 | 99 | 1016.5 |
| 20260503035508 | 49 | 192 | 0.0 | 0.0 | 0.00 | 0.11 | 0.11 | 99 | 1016.4 |
| 20260503035005 | 49 | 192 | 0.0 | 0.0 | 0.00 | 0.11 | 0.11 | 99 | 1016.3 |
| 20260503034502 | 49 | 192 | 0.0 | 0.0 | 0.00 | 0.11 | 0.11 | 99 | 1016.2 |
| 20260503033959 | 50 | 192 | 0.0 | 0.0 | 0.00 | 0.11 | 0.11 | 99 | 1016.1 |
| 20260503033456 | 50 | 192 | 0.0 | 0.0 | 0.00 | 0.11 | 0.11 | 99 | 1016.1 |
| 20260503032954 | 50 | 192 | 0.0 | 0.0 | 0.00 | 0.11 | 0.11 | 99 | 1016.3 |
| 20260503032453 | 50 | 192 | 0.0 | 0.0 | 0.00 | 0.11 | 0.11 | 99 | 1016.1 |
| 20260503031950 | 50 | 192 | 0.0 | 0.0 | 0.00 | 0.11 | 0.11 | 99 | 1016.0 |
| 20260503031448 | 50 | 192 | 0.0 | 0.0 | 0.00 | 0.11 | 0.11 | 99 | 1015.8 |
| 20260503030944 | 50 | 192 | 0.0 | 0.0 | 0.00 | 0.11 | 0.11 | 99 | 1016.0 |
| 20260503030441 | 50 | 192 | 0.0 | 0.0 | 0.00 | 0.11 | 0.11 | 99 | 1015.6 |
| 20260503025938 | 51 | 192 | 0.0 | 0.0 | 0.00 | 0.11 | 0.11 | 99 | 1015.8 |
| 20260503025434 | 51 | 192 | 0.0 | 0.0 | 0.00 | 0.11 | 0.11 | 99 | 1015.6 |
| 20260503024932 | 51 | 192 | 0.0 | 0.0 | 0.00 | 0.11 | 0.11 | 99 | 1015.7 |
| 20260503024428 | 51 | 192 | 0.0 | 0.0 | 0.00 | 0.11 | 0.11 | 99 | 1015.7 |
| 20260503023926 | 52 | 192 | 0.0 | 0.0 | 0.00 | 0.11 | 0.11 | 99 | 1015.4 |
| 20260503023423 | 52 | 192 | 0.0 | 0.0 | 0.00 | 0.11 | 0.11 | 99 | 1015.6 |
| 20260503022919 | 52 | 192 | 0.0 | 0.0 | 0.00 | 0.11 | 0.11 | 99 | 1015.4 |
| 20260503022414 | 52 | 192 | 0.0 | 0.0 | 0.00 | 0.11 | 0.11 | 99 | 1015.6 |
| 20260503021910 | 52 | 192 | 0.0 | 0.0 | 0.00 | 0.11 | 0.11 | 99 | 1015.4 |
| 20260503021407 | 52 | 193 | 0.0 | 0.0 | 0.00 | 0.11 | 0.11 | 99 | 1015.5 |